Torna al catalogo

COSMOS 2143 DEB

AttivoPO
NORAD 57723·DEBRIS·🇷🇺 Russia

Lanciato May 16, 1991 da Plesetsk Cosmodrome

Loading…

Prossimi Passaggi (prossime 24 ore)

TLE

AggiornatoSource: Space-Track

Epoca: Sep 14, 2026, 11:39 UTC

1 57723U 91033L   26257.48548260  .00003027  00000-0  15051-1 0  9994
2 57723  82.8033 270.0600 0197086 208.6158 150.4007 12.65118261145567

Traccia COSMOS 2143 DEB in tempo reale con AllMySat

Download on the App Store